DW4118 Weather Reports


time (UTC)temp
F
wind
direction
speed
knots
gust
knots
rain 1hr
in
rain 24hr
in
rain mn
in
humidity
%
barometer
mb
20260506103046 55 303 0.0 0.0 0.00 0.01 0.00 89 1015.3
20260506101547 55 303 0.0 0.0 0.00 0.01 0.00 89 1015.3
20260506100042 55 303 0.0 0.0 0.00 0.01 0.00 88 1015.3
20260506094546 55 303 0.0 0.0 0.00 0.01 0.00 88 1015.3
20260506093046 55 303 0.0 0.0 0.00 0.01 0.00 88 1015.2
20260506091541 55 303 0.0 0.0 0.00 0.01 0.00 89 1015.2
20260506090040 55 303 0.0 0.0 0.00 0.01 0.00 88 1015.2
20260506084536 56 303 0.0 0.0 0.00 0.01 0.00 87 1015.1
20260506083041 56 303 0.0 0.0 0.00 0.01 0.00 86 1015.1
20260506081535 56 303 0.0 0.0 0.00 0.01 0.00 87 1015.1
20260506073031 56 303 0.0 0.0 0.00 0.01 0.00 86 1014.8
20260506071533 56 303 0.0 0.0 0.00 0.01 0.00 87 1014.7
20260506061532 56 303 0.0 0.0 0.00 0.01 0.01 88 1014.5
20260506044521 56 303 0.0 0.0 0.00 0.01 0.01 88 1013.9
20260506043018 56 303 0.0 0.0 0.00 0.01 0.01 87 1013.8
20260506041515 56 303 0.0 0.0 0.00 0.01 0.01 87 1013.7
20260506040016 56 303 0.0 0.0 0.00 0.01 0.01 86 1013.6
20260506034514 56 303 0.0 0.0 0.00 0.01 0.01 87 1013.3
20260506033013 56 303 0.0 0.0 0.00 0.01 0.01 87 1013.1
20260506031516 57 303 0.0 0.0 0.00 0.01 0.01 86 1013.0
20260506030011 57 303 0.0 0.0 0.00 0.01 0.01 85 1012.9
20260506024512 57 303 0.0 0.0 0.00 0.01 0.01 85 1012.8
20260506023011 58 303 0.0 0.0 0.00 0.01 0.01 84 1012.8
20260506021511 58 303 0.0 0.0 0.00 0.01 0.01 82 1012.7
20260506020010 59 303 0.0 0.0 0.00 0.01 0.01 80 1012.8
20260506014511 59 303 0.0 0.0 0.00 0.01 0.01 80 1012.6
20260506013012 59 303 0.0 0.0 0.00 0.01 0.01 79 1012.6
20260506011509 60 303 0.0 0.0 0.00 0.01 0.01 79 1012.5
20260506010010 60 297 0.0 1.7 0.00 0.01 0.01 78 1012.5
20260506004508 60 310 0.0 1.7 0.00 0.01 0.01 77 1012.6
20260506003008 60 271 0.0 1.7 0.00 0.01 0.01 77 1012.6
20260506001507 60 3 0.0 0.0 0.00 0.01 0.01 78 1012.6
20260506000005 60 304 0.0 2.6 0.00 0.01 0.01 77 1012.7
20260505234506 61 335 0.0 1.7 0.00 0.01 0.01 75 1012.8
20260505233009 62 267 0.0 2.6 0.00 0.01 0.01 74 1012.8
20260505231509 62 321 0.0 2.6 0.00 0.01 0.01 72 1012.7
20260505230005 61 311 0.9 3.5 0.00 0.01 0.01 72 1012.7
20260505224503 62 300 0.0 1.7 0.00 0.01 0.01 72 1012.8
20260505223006 62 102 0.0 0.9 0.00 0.01 0.01 73 1012.9
20260505221503 62 281 0.9 2.6 0.00 0.01 0.01 72 1013.0
20260505220007 62 50 0.0 1.7 0.00 0.01 0.01 72 1012.9
20260505214501 64 147 0.0 3.5 0.00 0.01 0.01 69 1013.1
20260505213101 64 100 0.0 5.2 0.00 0.01 0.01 70 1013.1
20260505211614 65 190 0.9 6.1 0.00 0.01 0.01 69 1013.0
20260505210201 65 73 0.0 2.6 0.00 0.01 0.01 69 1013.2
20260505203012 62 248 0.0 2.6 0.00 0.01 0.01 75 1013.4
20260505174636 54 289 0.0 0.9 0.00 0.01 0.01 91 1013.5
20260505124547 51 57 0.0 0.0 0.00 0.00 0.00 93 1011.9
20260505123040 51 57 0.0 0.0 0.00 0.00 0.00 93 1011.8
20260505121542 51 57 0.0 0.0 0.00 0.00 0.00 93 1011.8
20260505120047 52 82 0.0 0.0 0.00 0.00 0.00 92 1011.8
20260505114536 52 82 0.0 0.9 0.00 0.00 0.00 91 1011.8
20260505113035 52 295 0.0 0.0 0.00 0.00 0.00 91 1011.7
20260505111533 52 295 0.0 0.0 0.00 0.00 0.00 90 1011.6